Regional Weather Roundup
Issued by NWS

Home | Current Version | Previous Version | Text Only | Print | Product List | Glossary Off
Versions: 1 2 3 4 5 6 7 8 9 10 11 12 13 14 15 16 17 18 19 20 21 22 23 24 25 26 27 28 29 30 31 32 33 34 35 36 37 38 39 40 41 42 43 44 45 46 47 48 49 50

000
ASUS45 KBOI 280610
RWRID
WEATHER ROUNDUP FOR IDAHO
NATIONAL WEATHER SERVICE BOISE ID
1200 AM MDT THU AUG 28 2014

NOTE: "FAIR" INDICATES FEW OR NO CLOUDS BELOW 12000 FEET
WITH NO SIGNIFICANT WEATHER AND/OR OBSTRUCTIONS TO VISIBILITY

IDZ012-014-280700-
SOUTHWEST IDAHO


CITY           SKY/WX    TMP DP  RH WIND       PRES   REMARKS
BOISE          CLEAR     72  39  30 SE8       30.04F
CALDWELL       CLEAR     63  43  48 E6        30.03S
MOUNTAIN HOME  CLEAR     67  40  38 NE2       30.06S
$$

IDZ016-017-280700-
SOUTHCENTRAL IDAHO


CITY           SKY/WX    TMP DP  RH WIND       PRES   REMARKS
BURLEY         CLEAR     59  51  75 SW5       30.14F
JEROME         CLEAR     62  50  64 E7        30.14S
TWIN FALLS     CLEAR     63  48  58 S14       30.14F
$$

IDZ019>023-280700-
SOUTHEAST IDAHO


CITY           SKY/WX    TMP DP  RH WIND       PRES   REMARKS
IDAHO FALLS    CLEAR     64  48  56 S9        30.18S
POCATELLO      CLEAR     59  49  69 CALM      30.18S
REXBURG        CLEAR     62  47  57 S8        30.18S
$$

IDZ006-010-011-018-031-032-280700-
CENTRAL IDAHO MOUNTAINS


CITY           SKY/WX    TMP DP  RH WIND       PRES   REMARKS
MCCALL         CLEAR     56  44  64 CALM      30.18S
HAILEY         CLEAR     55  46  71 W9        30.23S
STANLEY          N/A     50  39  66 SE5       30.31R
SALMON         CLEAR     55  48  76 CALM      30.12R
CHALLIS        CLEAR     60  43  53 CALM      30.18S
$$

IDZ002-004-006-007-026-280700-
NORTHERN IDAHO


CITY           SKY/WX    TMP DP  RH WIND       PRES   REMARKS
LEWISTON       CLEAR     76  48  37 S3        29.92S
LOWELL           N/A     62  55  77 CALM      30.02R
COEUR D`ALENE  CLEAR     66  48  52 E3        29.95S
MULLAN PASS    CLEAR     62  38  40 SW6       30.19F
$$



USA.gov is the U.S. government's official web portal to all federal, state and local government web resources and services.